Regional Weather Roundup
Issued by NWS Sioux Falls, SD

Home | Current Version | Previous Version | Text Only | Print | Product List | Glossary On
Versions: 1 2 3 4 5 6 7 8 9 10 11 12 13 14 15 16 17 18 19 20 21 22 23 24 25 26 27 28 29 30 31 32 33 34 35 36 37 38 39 40 41 42 43 44 45 46 47 48 49 50
897
ASUS43 KFSD 200810
RWRFSD

WEATHER ROUNDUP FOR SE SOUTH DAKOTA/SW MINNESOTA/NW IOWA
NATIONAL WEATHER SERVICE SIOUX FALLS SD
200 AM CST MON NOV 20 2017

NOTE: "FAIR" INDICATES FEW OR NO CLOUDS BELOW 12,000 FEET WITH NO
SIGNIFICANT WEATHER AND OR OBSTRUCTIONS TO VISIBILITY.


SDZ038>040-050-052>070-200900-
SOUTHEAST SOUTH DAKOTA

CITY           SKY/WX    TMP DP  RH WIND       PRES   REMARKS
BROOKINGS      CLOUDY    31  24  75 SE6       29.70F WCI  25
CHAMBERLAIN    CLOUDY    34  23  64 CALM      29.66S
HURON          CLOUDY    28  22  78 SE7       29.65F WCI  21
MADISON        FAIR      32  23  69 S9        29.70F WCI  24
MITCHELL       CLOUDY    29  23  78 S8        29.68F WCI  21
SIOUX FALLS    CLOUDY    30  23  75 S5        29.71F WCI  25
WINNER         FAIR      39  20  46 SW15      29.67F
YANKTON        CLOUDY    40  24  53 SW9       29.71F
$$

MNZ071-072-080-081-089-090-097-098-200900-
SOUTHWEST MINNESOTA

CITY           SKY/WX    TMP DP  RH WIND       PRES   REMARKS
FAIRMONT       CLOUDY    26  24  92 S8        29.77F WCI  18
JACKSON        CLOUDY    34  27  75 SW10      29.75F WCI  26
LUVERNE        CLOUDY    28  23  80 CALM      29.74F
MARSHALL       NOT AVBL
MONTEVIDEO     CLOUDY    28  23  80 CALM      29.72S
PIPESTONE      CLOUDY    28  21  74 SE6       29.71F WCI  22
REDWOOD FALLS  CLEAR     31  22  69 SE3       29.73F
WINDOM         CLOUDY    34  19  55 CALM      29.74F
WORTHINGTON    CLOUDY    33  24  69 SW9       29.74F WCI  25
$$

IAZ001>003-012>014-020>022-031-032-NEZ013-014-SDZ071-200900-
NORTHWEST IOWA

CITY           SKY/WX    TMP DP  RH WIND       PRES   REMARKS
CHEROKEE       CLOUDY    33  26  75 S7        29.78F WCI  27
DENISON        CLEAR     37  25  60 S9        29.84S
ESTHERVILLE    CLOUDY    35  26  69 SW9       29.76F WCI  28
LE MARS        CLOUDY    32  25  74 S9        29.76F WCI  24
ORANGE CITY    CLOUDY    34  28  80 S5        29.74F WCI  30
SHELDON        CLOUDY    28  25  86 SE8       29.74F WCI  20
SIOUX CITY     CLEAR     30  25  81 E8        29.78F WCI  22
SPENCER        CLOUDY    30  23  75 S8        29.77F WCI  22
STORM LAKE     CLOUDY    34  25  69 S12       29.78F WCI  25
$$

ABBREVIATIONS USED IN REMARKS
   TC - TEMPERATURE IN CELSIUS
  WCI - WIND CHILL INDEX
   HX - HEAT INDEX
  VSB - VISIBILITY





USA.gov is the U.S. government's official web portal to all federal, state and local government web resources and services.